This demonstration page uses our WeatherBlox Daily Observations layout. Learn more.

Left ArrowRight Arrow

Hourly Observations for December 25, 2020

Temp ( °F °C ) Dew Point ( °F °C ) Humidity (%) Winds ( mph kmh ) Pressure ( in mb ) Visibility ( mi km ) Precip ( " mm )
12:54 am 00:54 Clear 8 -13.3 2 -16.7 76 76 WSW 3 6 30.27 1025 10 16.0934 0 0
1:54 am 01:54 Clear 8 -13.3 2 -16.7 76 76 Calm 30.24 1024 10 16.0934 0 0
2:54 am 02:54 Clear 8 -13.3 2 -16.7 76 76 W 3 6 30.23 1024 10 16.0934 0 0
3:54 am 03:54 Clear 5 -15 0 -17.8 79 79 Calm 30.22 1023 10 16.0934 0 0
4:54 am 04:54 Clear 7 -13.9 2 -16.7 80 80 SE 3 6 30.2 1023 10 16.0934 0 0
5:54 am 05:54 Clear 6 -14.4 1 -17.2 79 79 S 7 11 30.19 1023 10 16.0934 0 0
6:54 am 06:54 Clear 6 -14.4 1 -17.2 79 79 SSE 6 9 30.2 1023 10 16.0934 0 0
7:54 am 07:54 Sunny 7 -13.9 2 -16.7 80 80 S 7 11 30.18 1022 10 16.0934 0 0
8:54 am 08:54 Sunny 11 -11.7 5 -15 77 77 SSE 8 13 30.17 1022 10 16.0934 0 0
9:54 am 09:54 Sunny 18 -7.8 11 -11.7 74 74 S 9 15 30.14 1021 10 16.0934 0 0
10:54 am 10:54 Sunny 24 -4.4 15 -9.4 68 68 SSW 8 13 30.15 1021 10 16.0934 0 0
11:54 am 11:54 Sunny 27 -2.8 18 -7.8 69 69 S 12 19 30.11 1020 10 16.0934 0 0
12:54 pm 12:54 Sunny 31 -0.6 20 -6.7 64 64 SW 10 17 30.08 1019 10 16.0934 0 0
1:54 pm 13:54 Sunny 36 2.2 24 -4.4 62 62 SSW 8 13 30.05 1018 10 16.0934 0 0
2:54 pm 14:54 Sunny 40 4.4 26 -3.3 58 58 WSW 8 13 30.04 1017 10 16.0934 0 0
3:54 pm 15:54 Sunny 42 5.6 29 -1.7 60 60 WSW 8 13 30.03 1017 10 16.0934 0 0
4:54 pm 16:54 Sunny 39 3.9 29 -1.7 67 67 S 3 6 30.02 1017 10 16.0934 0 0
5:54 pm 17:54 Clear 32 0 26 -3.3 79 79 Calm 30.02 1017 10 16.0934 0 0
6:54 pm 18:54 Clear 31 -0.6 27 -2.8 85 85 Calm 30.03 1017 10 16.0934 0 0
7:54 pm 19:54 Clear 24 -4.4 20 -6.7 84 84 Calm 30.04 1017 10 16.0934 0 0
8:54 pm 20:54 Clear 26 -3.3 22 -5.6 84 84 SE 3 6 30.02 1017 10 16.0934 0 0
9:54 pm 21:54 Clear 27 -2.8 23 -5 85 85 Calm 30.02 1017 10 16.0934 0 0
10:54 pm 22:54 Clear 22 -5.6 18 -7.8 85 85 Calm 30.03 1017 10 16.0934 0 0
11:54 pm 23:54 Clear 22 -5.6 18 -7.8 85 85 NNW 5 7 30.01 1016 10 16.0934 0 0

Powered by AerisWeather